Gunnison, CO (81230)

8:56 PM MST on December 03, 2016 (GMT -0700)
West Ruby Ave Weather | | Change Station

Elev 7713 ft 38.55 °N, 106.93 °W | Updated 24 seconds ago

Clear
Clear
15.6 °F
Feels Like 16 °F
N
0.0
Wind Variable Wind from North
Gusts 0.0 mph

Today
High -- | Low -- °F
--% Chance of Precip.
Yesterday
High -- | Low -- °F
Precip. -- in
Pressure 30.33 in
Visibility 10.0 miles
Clouds Clear
Windchill 16 °F
Dew Point 2 °F
Humidity 55%
Rainfall in
Snow Depth Not available.
7:08 AM 4:46 PM
Waxing Crescent, 19% visible
METAR KGUC 040256Z AUTO 18006KT 10SM CLR M09/M14 A3013 RMK AO2 SLP271 T10891139 53018 FZRANO
Pressure 30.33 in
Visibility 10.0 miles
Clouds Clear
Windchill 16 °F
Dew Point 2 °F
Humidity 55%
Rainfall in
Snow Depth Not available.
7:08 AM 4:46 PM
Waxing Crescent, 19% visible
METAR KGUC 040256Z AUTO 18006KT 10SM CLR M09/M14 A3013 RMK AO2 SLP271 T10891139 53018 FZRANO

10-Day Weather Forecast

Almanac

Astronomy

Dec. 03, 2016 Rise Set
Actual Time
Civil Twilight
Nautical Twilight
Astronomical Twilight
Moon
Length of Visible Light
Length of Day
Tomorrow will be .
, % of the Moon is Illuminated

Today's Extremes

State Highs State Lows

Community

WunderPhotos

Upload Photos

1,955,573 photos uploaded!

WunderBlog® & News

Nearby

Air Quality

  Air Quality AQ Index Pollutant
Not available.

Snow Depth

Station Depth Elevation

Earthquake Activity

City Distance Mag. Time & Date
Minimum magnitude displayed is 2.5.

Coastal Water Temperatures

Place Temperature

Stations

Nearby Weather Stations

Station Location Temp. Windchill Dew Point Humidity Wind Precip. Elev Updated Type
                   

Watches & Warnings

There are currently no watches in effect.